Snowfall_Accumulation
1.5 1.7 2.2 1.9 1.8 2.1 2.8 4.3 7.2 6.1 1.6 0.4 0.4 0.1 0.0 0.1 0.0 0.1 0.1 0.1 0.2 0.5 0.6 0.5 0.3 0.3 0.2 0.1 0.1 0.2 0.2 0.0 0.0 0.0 0.0 0.0 0.0 0.0
2.0 2.4 2.5 2.3 2.4 2.3 2.7 3.1 4.4 6.4 4.4 0.5 0.4 0.1 0.0 0.0 0.0 0.0 0.0 0.1 0.2 0.3 0.3 0.4 0.3 0.2 0.2 0.2 0.1 0.2 0.2 0.1 0.0 0.0 0.0 0.0 0.0 0.0
2.2 2.4 2.5 2.7 3.2 2.3 2.2 2.6 2.9 4.2 5.3 1.0 0.4 0.2 0.0 0.1 0.0 0.0 0.0 0.0 0.0 0.0 0.1 0.3 0.3 0.3 0.3 0.3 0.2 0.2 0.2 0.1 0.0 0.0 0.0 0.0 0.0 0.0
2.8 2.8 2.8 3.0 3.3 2.3 2.4 2.7 2.6 2.6 4.3 3.2 0.6 0.2 0.2 0.1 0.1 0.1 0.1 0.1 0.1 0.0 0.1 0.2 0.3 0.4 0.4 0.4 0.3 0.2 0.2 0.1 0.1 0.1 0.0 0.0 0.0 0.0
3.1 3.7 3.3 3.6 3.5 2.8 2.7 2.9 2.6 2.3 2.9 3.7 1.8 0.5 0.4 0.1 0.3 0.2 0.2 0.2 0.1 0.1 0.1 0.1 0.2 0.3 0.3 0.3 0.4 0.2 0.3 0.1 0.1 0.1 0.1 0.1 0.1 0.0
2.6 3.1 4.0 4.4 4.5 4.5 4.5 4.0 3.7 4.1 3.8 4.1 3.1 1.8 1.4 0.9 1.1 1.6 1.4 1.1 1.0 0.6 0.4 0.1 0.2 0.3 0.3 0.4 0.5 0.6 0.6 0.4 0.4 0.4 0.3 0.2 0.2 0.2
2.2 2.5 3.5 4.1 4.7 6.1 6.8 6.6 6.5 7.1 6.7 6.8 5.6 4.1 3.3 2.9 2.9 2.1 2.8 1.8 1.3 0.9 0.8 0.7 0.7 0.4 0.2 0.1 0.2 0.2 0.4 0.3 0.4 0.4 0.4 0.4 0.4 0.3
2.5 2.4 3.0 5.1 6.1 4.9 5.6 6.1 7.3 9.9 11.0 10.4 8.9 7.1 4.7 3.7 3.2 3.6 4.7 5.2 4.2 1.2 1.4 1.3 0.9 1.1 0.5 0.4 0.1 0.2 0.4 0.5 0.6 0.6 0.6 0.6 0.6 0.6
2.4 2.3 2.7 3.8 4.9 6.1 6.4 5.4 5.6 5.9 8.1 10.8 12.0 8.2 6.1 4.3 5.3 6.2 5.8 6.6 5.7 3.3 2.8 3.7 1.5 1.9 0.8 0.2 0.2 0.4 0.5 0.7 0.7 0.8 0.9 0.8 0.8 0.8
2.2 2.0 1.9 2.6 3.9 5.7 7.1 6.9 6.2 6.6 8.4 9.7 11.9 10.0 6.8 5.2 7.1 9.1 9.1 9.0 5.3 2.5 2.3 6.2 2.3 2.0 1.4 0.5 0.3 0.5 0.5 0.6 0.7 0.9 0.9 1.0 1.1 1.1
2.4 1.9 1.5 1.8 3.1 5.0 6.2 6.3 5.0 5.4 6.2 7.8 8.4 8.4 6.5 6.1 6.3 10.0 12.2 14.2 11.5 4.4 2.5 5.7 3.4 3.0 2.5 1.9 1.1 0.3 0.5 0.6 0.6 0.8 1.0 1.1 1.3 1.3
2.4 2.1 1.7 2.6 3.2 4.1 5.2 6.4 7.8 6.2 5.4 5.4 5.3 4.8 4.8 5.5 4.9 8.5 11.1 14.8 13.7 10.0 3.7 5.7 4.6 5.4 6.2 2.6 2.0 1.4 0.8 0.4 0.4 0.6 0.7 0.9 1.2 1.2
3.4 2.8 1.9 2.6 3.3 3.5 3.9 5.5 8.4 6.3 5.2 6.0 5.7 4.8 4.7 5.7 7.1 8.8 10.0 12.2 14.7 13.1 7.2 8.6 8.8 7.3 9.4 7.2 3.8 2.1 1.1 0.8 0.5 0.3 0.3 0.5 0.8 1.2
4.3 2.9 2.2 2.6 2.8 2.8 3.2 3.4 4.0 4.4 5.7 5.8 5.5 5.1 5.2 6.3 7.8 9.4 11.6 14.2 13.3 11.7 7.2 9.1 13.0 11.0 11.9 9.7 6.1 3.8 2.3 1.0 1.0 1.0 0.8 0.8 0.7 0.9
4.7 3.7 2.7 2.9 2.8 2.6 2.4 2.6 3.2 4.5 6.0 6.8 6.1 5.0 5.3 6.1 6.9 7.8 8.8 10.3 9.9 7.9 6.3 6.2 9.3 10.4 11.8 11.9 7.2 4.1 3.5 1.9 1.4 1.2 1.5 1.5 1.7 1.3
4.7 3.6 2.7 2.6 2.7 2.2 2.1 2.4 2.7 3.7 5.5 6.5 6.0 4.9 4.4 5.2 6.2 7.8 9.2 9.9 10.7 9.5 7.1 5.2 6.0 9.1 10.9 7.8 6.8 5.3 3.6 4.4 2.7 1.9 2.3 2.0 1.6 1.5
6.3 5.8 4.7 4.4 4.1 3.4 2.8 2.5 2.8 3.2 4.1 4.6 5.4 5.7 5.6 5.7 6.1 6.8 9.0 10.4 12.5 13.0 11.6 8.0 8.4 7.5 7.8 8.0 8.4 5.4 3.4 3.2 3.0 2.9 3.3 3.0 1.9 1.6
6.9 8.2 5.8 4.8 5.1 4.7 4.2 3.6 3.6 3.6 3.7 4.5 5.7 6.2 6.4 6.7 6.7 6.3 7.8 10.3 12.3 13.2 13.3 12.0 12.3 12.2 10.5 10.0 8.2 6.2 4.2 3.9 3.6 3.6 3.7 4.5 3.6 1.7
7.1 6.4 5.1 4.8 4.8 4.8 4.5 4.5 4.3 3.7 3.8 4.9 5.5 5.8 6.0 6.8 7.0 7.2 7.9 9.1 10.7 12.1 12.9 12.0 13.3 15.7 16.4 17.7 14.5 6.0 6.1 5.2 4.3 4.1 3.8 4.4 4.8 3.0
4.9 5.5 5.5 5.1 5.3 5.5 5.2 5.2 4.6 4.0 4.3 4.5 4.6 5.0 5.7 7.0 7.3 7.3 7.7 9.1 10.3 11.2 12.1 12.1 13.7 16.1 18.4 17.6 17.1 12.3 5.6 6.6 6.7 6.8 5.1 3.8 3.3 1.8
5.0 4.9 5.2 5.4 6.1 6.0 5.7 5.4 4.7 4.6 4.4 4.6 4.7 5.0 5.3 6.7 7.3 6.8 7.4 8.1 9.4 11.1 12.4 12.7 12.8 13.6 15.2 15.2 16.0 14.4 11.6 6.9 5.1 6.7 6.6 7.0 6.4 5.0
5.3 5.3 5.1 5.6 6.3 6.4 5.8 5.5 4.9 4.5 4.2 4.5 4.5 4.6 5.2 6.3 7.0 7.0 7.5 8.4 9.0 10.0 11.3 11.5 11.1 12.8 16.0 16.7 16.2 13.7 13.0 11.2 7.5 4.9 5.0 5.5 9.3 10.9
6.1 5.6 5.7 5.7 5.9 6.2 6.4 5.7 5.0 4.5 4.0 4.4 4.7 4.6 4.9 5.9 6.1 6.6 7.3 7.9 8.6 9.2 10.3 12.1 12.8 13.4 15.1 15.9 15.6 14.4 12.8 11.5 10.5 9.0 8.5 4.1 3.6 3.4